Zurück zum Katalog

STARLINK-1973

AktivKommunikationVLEO
NORAD 47628·PAYLOAD·🇺🇸 United States

Gestartet Feb 16, 2021 von Cape Canaveral Space Force Station

Loading…

Nächste Überflüge (nächste 24 Stunden)

TLE

AktuellSource: CelesTrak SupGP

Epoche: Sep 14, 2026, 21:53 UTC

1 47628C 21012J   26257.91229167  .00052843  00000+0  16997-2 0  2574
2 47628  53.1568 264.3932 0001298  95.9191 186.9802 15.31667347    18

Verfolge STARLINK-1973 in Echtzeit mit AllMySat

Download on the App Store